www.pogodaiklimat.ru

Погода и климат >> Архив погоды >> Шри Ланка >> Джафна


ПОГОДА в Джафне

  • Прогноз погоды в Джафне
  • Монитор погоды в Джафне

АРХИВ ПОГОДЫ в Джафне

Время (UTC), дата Ветер
(напр.,м/с)
 
Видим.   Явления Облачность Т
(С)
Тd
(С)
f
(%)
Тe
(С)
Тes
(С)
Комфортность P
(гПа)
Po
(гПа)
Тmin
(С)
Tmax
(С)
R
(мм)
R24
(мм)
S
(см)
03 16.09 20 км 10/8 540 м
[Cb cap Ac As]
+27.3 +26.2 94 1010.1 1008.9 +23.5 35
06 16.09 20 км 10/6 540 м
[Cu med, cong Ac As]
+29.4 +26.0 82 1009.2 1008.0
09 16.09 20 км 10/6 540 м
[Cu med, cong Ac As]
+29.6 +26.0 81 1006.5 1005.5
12 16.09 20 км 10/6 540 м
[Cu med, cong Ac As]
+28.4 +25.3 83 1006.6 1005.4 +30.5
00 17.09 20 км 6/3 540 м
[Cu hum Ci fib]
+24.5 +24.1 98 1007.0 1005.8 9
03 17.09 20 км 8/3 540 м
[Cu hum Ci fib]
+28.4 +25.6 85 1008.4 1007.2 +23.8
06 17.09 20 км 9/3 540 м
[Cu hum Ac As Cs]
+30.8 +25.9 75 1008.0 1006.8
09 17.09 20 км 9/5 540 м
[Cu med, cong Cs]
+31.0 +24.7 69 1006.0 1004.8
15 17.09 20 км 5/5 540 м
[Cu hum]
+28.0 +25.5 86 1007.2 1006.0
00 18.09 20 км 10/3 540 м
[Cu hum As trans]
+24.0 +23.1 95 1007.0 1005.8 0.7
03 18.09 20 км гроза без осадков 10/10 540 м
[Cb cap]
+25.1 +24.1 94 1009.7 1008.5 +23.8 1
06 18.09 20 км слаб. ливневой дождь {гроза} 10/10 540 м
[Cb cap]
+24.8 +24.5 98 1009.5 1008.3 33
09 18.09 20 км {ливн. осадки, дождь} 9/5 540 м
[Cu hum Ac As]
+28.3 +25.7 86 1007.1 1005.9 2
12 18.09 20 км 10/4 540 м
[Cu hum Ci fib]
+28.4 +25.5 84 1006.6 1005.4 +29.2
15 18.09 20 км 4/4 540 м
[Cu hum]
+27.6 +26.5 94 1007.9 1006.7
00 19.09 20 км 8/4 540 м
[Cu hum Ac As]
+27.4 +25.1 87 1007.6 1006.4
03 19.09 20 км 5/4 540 м
[Cu hum Ac As]
+28.9 +25.3 81 1009.3 1008.1 +23.7
06 19.09 20 км 4/3 540 м
[Cu hum Ac As]
+30.2 +25.7 77 1009.0 1007.8
09 19.09 20 км 3/3 540 м
[Cu hum]
+30.6 +26.4 78 1007.3 1006.1
15 19.09 20 км 3/3 540 м
[Cu hum]
+28.1 +25.1 84 1009.4 1008.2
03 20.09 Ю 2 20 км слаб. дождь 5/5 540 м
[Cu med, cong]
+26.7 +25.6 94 +39 +43 очень
душно
1010.6 1010.4 +25.0 2
06 20.09 20 км 8/4 540 м
[Cu hum Cs]
+31.0 +27.3 81 1009.2 1008.0
09 20.09 20 км 4/4 540 м
[Cu hum]
+31.0 +27.4 81 1007.4 1006.2
12 20.09 20 км 5/3 540 м
[Cu hum Ac As]
+29.4 +27.7 91 1007.6 1006.4 +31.8
15 20.09 20 км 4/4 540 м
[Cu hum]
+28.0 +26.0 89 1008.7 1007.5
00 21.09 20 км 8/4 540 м
[Cu hum As trans]
+27.5 +25.7 90 1008.1 1006.9
03 21.09 20 км 6/6 540 м
[Cu med, cong]
+29.0 +26.3 85 1009.0 1007.8 +27.4
06 21.09 20 км 10/4 540 м
[Cu hum Ac As Cs]
+30.0 +27.3 85 1008.3 1007.1
09 21.09 20 км 10/4 540 м
[Cu hum Ac As Cs]
+30.4 +27.1 83 1006.3 1005.1
12 21.09 20 км 8/3 50 м
[Cu hum Ac As Cs]
+29.4 +27.5 90 1005.9 1004.7 +31.2
15 21.09 20 км 3/3 540 м
[Cu hum]
+28.0 +27.1 95 1007.4 1006.2
03 22.09 20 км 5/5 540 м
[Cu hum]
+29.5 +28.0 92 1009.1 1007.9 +26.9
09 22.09 20 км 10/5 540 м
[Cu hum Ac As Cs]
+30.3 +28.3 89 1006.8 1005.6
12 22.09 20 км 10/3 540 м
[Cu hum Ac As Cs]
+29.2 +25.5 80 1006.9 1005.7 +32.0

 

Местоположение метеостанции Джафна (Шри Ланка): широта 9.65 долгота 80.02 высота над уровнем моря 3 м.

В архиве по умолчанию представлена погода в Джафне за последнюю неделю. Архивные данные за месяц целиком и за предыдущие месяцы, начиная с января 2011 года, Вы можете получить, выбрав интересующий диапазон дат из раскрывающегося списка и нажав кнопку "Ввод!".


*Определитесь, кто Вы:
робот инопланетянин человек

Внимание! Время в таблицах - всемирное. Для получения местного времени необходимо прибавить поправку, которая равна 6 ч.

Смотрите также архив погоды в соседних городах и на ближайших метеорологических станциях:

Погода в Маннаре (Шри Ланка) (75 км)
Погода на Памбане (Тамилнад, Индия) (97 км)
Погода в Адирампаттинаме (Тамилнад, Индия) (103 км)
Погода в Тонди (Тамилнад, Индия) (109 км)
Погода в Вавунии (Шри Ланка) (113 км)
Погода в Нагапаттинаме (Тамилнад, Индия) (126 км)
Погода в Карайкале (Пондичерри, Индия) (143 км)
Погода в Анурадхапуре (Шри Ланка) (153 км)
Погода в Танджавуре (Тамилнад, Индия) (159 км)
Погода в Кудумиянмалае (Тамилнад, Индия) (170 км)

Пояснения к столбцам:

Ветер - указаны скорость ветра в м/с - средняя за 10 мин, порывы в срок и между сроками (в фигурных скобках) и направление, откуда дует ветер: С - северный, СВ - северо-восточный, В - восточный, ЮВ - юго-восточный, Ю - южный, ЮЗ - юго-западный, З - западный, СЗ - северо-западный.
Видимость - горизонтальная дальность видимости в метрах или километрах. При видимости от 1 до 10 км при отсутствии осадков обычно наблюдается дымка, при ухудшении видимости до 1 км и менее - туман. В сухую погоду видимость может ухудшаться дымом, пылью или мглою.
Явления - указаны атмосферные явления, наблюдавшиеся в срок или в последний час перед сроком; фигурными скобками обозначены явления, наблюдавшиеся между сроками (за 1-3 часа до срока); квадратными скобками обозначены град или гололедные отложения с указанием их диаметра в мм.
Облачность - указаны через наклонную черту общая и нижняя облачность в баллах и высота нижней границы облаков в метрах; квадратными скобками обозначены формы облаков: Ci - перистые, Cs - перисто-слоистые, Cc - перисто-кучевые, Ac - высококучевые, As - высокослоистые, Sc - слоисто-кучевые, Ns - слоисто-дождевые, Cu - кучевые, Cb - кучево-дождевые. Подробнее классификацию облаков см. в Атласе облаков (PDF).
T - Температура воздуха - температура, измеренная на высоте 2 м над землей.
Td - Температура точки росы - температура, при понижении до которой содержащийся в воздухе водяной пар достигнет насыщения.
f - Относительная влажность воздуха - влажноcть воздуха, измеренная на высоте 2 м над землей.
Te - Эффективная температура - температура, которую ощущает одетый по сезону человек в тени. Характеристика душности погоды. При расчете учитывается влияние влажности воздуха и скорости ветра на теплоощущения человека.
Tes - Эффективная температура на солнце - температура, которую ощущает человек, с поправкой на солнечный нагрев. Характеристика знойности погоды. Зависит от высоты солнца над горизонтом, облачности и скорости ветра. Ночью, в пасмурную погоду, а также при ветре 12 м/с и более поправка равна нулю.
P - Атмосферное давление - приведенное к уровню моря атмосферное давление.
Po - Атмосферное давление - измеренное на уровне метеостанции атмосферное давление.
Tmin - Минимальная температура - минимум температуры воздуха на высоте 2 м над землей.
Tmax - Максимальная температура - максимум температуры воздуха на высоте 2 м над землей.
R - Количество осадков - Количество выпавших осадков за период времени, мм. При наведении курсора мыши на число - период времени, за который выпало указанное количество осадков.
R24 - Количество осадков - Количество выпавших осадков за 24 часа, мм.
S - Снежный покров - Высота снежного покрова, см. При наведении курсора мыши на число - состояние снежного покрова и степень покрытия местности в баллах.